Home   Weather   Malmö   Past weeks

Flag for Sweden Past Weather in Malmö, Sweden — Yesterday and Last 2 Weeks

Now
32 °F

Light snow. Passing clouds.


Feels Like: 24 °F
Forecast: 36 / 40 °F
Wind: 9 mph from Southwest

Location: Malmo / Sturup

Current Time: Jan 18, 2017 at 5:25:25 am

Latest Report: Jan 18, 2017 at 4:50 am


Visibility: 3 mi

Pressure: 30.60 "Hg

Humidity: 100%

Dew Point: 32 °F

Location of MalmöLocation

Past Weather in Malmö — Graph

°F

Malmö Temperature Yesterday

Maximum temperature yesterday: 32 °F (at 10:20 pm)
Minimum temperature yesterday: 18 °F (at 8:50 am)
Average temperature yesterday: 26 °F

High & Low Weather Summary for the Past Weeks

 TemperatureHumidityPressure
High43 °F (Jan 3, 4:50 pm)100% (Jan 3, 4:20 am)30.74 "Hg (Jan 3, 4:20 am)
Low7 °F (Jan 6, 6:20 am)39% (Jan 6, 12:50 pm)29.09 "Hg (Jan 11, 5:50 pm)
Average30 °F87%29.94 "Hg
* Reported Jan 3 4:20 am — Jan 18 4:20 am, Malmö, Weather by CustomWeather, © 2017

Note: Actual official high and low records may vary slightly from our data, if they occured in-between our weather recording intervals... More about our weather records

Advertising

Malmö Weather History for the Previous 24 Hours

Scroll right to see more
 ConditionsComfort  
Time TempWeatherWind HumidityBarometerVisibility
4:20 am
Wed, Jan 18
32 °FLight snow. Mostly cloudy.8 mph100%30.60 "Hg3 mi
3:50 am32 °FLight snow. Passing clouds.8 mph93%30.60 "Hg4 mi
3:20 am34 °FFog.9 mph93%30.60 "Hg5 mi
2:50 am34 °FClear.10 mph87%30.60 "Hg10 mi
2:20 am34 °FClear.8 mph87%30.60 "Hg10 mi
1:50 am32 °FClear.9 mph93%30.60 "Hg10 mi
1:20 am32 °FPassing clouds.10 mph93%30.60 "HgN/A
12:50 am32 °FOvercast.10 mph93%30.60 "HgN/A
12:20 am32 °FOvercast.12 mph93%30.60 "HgN/A
11:50 pm
Tue, Jan 17
32 °FOvercast.12 mph93%30.60 "HgN/A
11:20 pm32 °FPassing clouds.10 mph87%30.60 "HgN/A
10:50 pm32 °FPassing clouds.9 mph87%30.60 "HgN/A
10:20 pm32 °FPassing clouds.8 mph87%30.63 "HgN/A
9:50 pm30 °FMostly cloudy.7 mph86%30.63 "HgN/A
9:20 pm30 °FMostly cloudy.7 mph86%30.63 "HgN/A
8:50 pm30 °FOvercast.8 mph86%30.63 "HgN/A
8:20 pm30 °FOvercast.8 mph86%30.63 "HgN/A
7:50 pm30 °FMostly cloudy.8 mph86%30.63 "HgN/A
7:20 pm30 °FMostly cloudy.7 mph86%30.63 "HgN/A
6:50 pm30 °FClear.7 mph80%30.63 "Hg10 mi
6:20 pm28 °FClear.5 mph86%30.60 "Hg10 mi
5:50 pm28 °FClear.5 mph86%30.60 "Hg10 mi
5:20 pm28 °FClear.5 mph86%30.60 "Hg10 mi
4:50 pm28 °FClear.5 mph86%30.60 "Hg10 mi
4:20 pm28 °FClear.3 mph86%30.60 "Hg10 mi
3:50 pm28 °FPassing clouds.3 mph86%30.60 "HgN/A
3:20 pm28 °FSunny.3 mph80%30.60 "Hg10 mi
2:50 pm28 °FBroken clouds.7 mph80%30.60 "HgN/A
2:20 pm28 °FPartly sunny.7 mph86%30.60 "HgN/A
1:50 pm28 °FPartly sunny.7 mph86%30.60 "HgN/A
1:20 pm28 °FPartly sunny.7 mph86%30.60 "HgN/A
12:50 pm28 °FPartly sunny.5 mph86%30.60 "HgN/A
12:20 pm28 °FPartly sunny.6 mph80%30.60 "HgN/A
11:50 am28 °FPassing clouds.3 mph86%30.60 "HgN/A
11:20 am27 °FPassing clouds.3 mph86%30.60 "HgN/A
10:50 am27 °FPassing clouds.2 mph93%30.60 "HgN/A
10:20 am28 °FPassing clouds.2 mph93%30.60 "HgN/A
9:50 am21 °FSunny.2 mph100%30.57 "Hg10 mi
9:20 am19 °FSunny.1 mph93%30.57 "Hg10 mi
8:50 am18 °FSunny.2 mph93%30.57 "Hg10 mi
8:20 am19 °FClear.2 mph93%30.57 "Hg10 mi
7:50 am19 °FClear.5 mph93%30.57 "Hg10 mi
7:20 am19 °FClear.7 mph100%30.54 "Hg10 mi
6:50 am19 °FClear.6 mph93%30.54 "Hg10 mi
6:20 am19 °FClear.No wind93%30.51 "Hg10 mi
5:50 am21 °FPassing clouds.No wind93%30.51 "HgN/A
5:20 am23 °FPassing clouds.No wind93%30.51 "HgN/A
Weather by CustomWeather, © 2017

See weather overviewHow to use our weather pages